IFJ6767 LPFR-LPFR

Flight info

Callsign IFJ6767
Flight time 0h 2m
Altitude 1500
Route GIMAL DCT UBESO DCT GEBTI
Aircraft C172/L-SFG/C

Departure

Time 2026-05-05 22:00
Airport Faro - Gago Coutinho International Airport (LPFR)

Arrival

Time 2026-05-05 22:02
Airport Faro - Gago Coutinho International Airport (LPFR)
Time Latitude Longitude Altitude Speed Heading
2026-05-05 21:47 37.01724 -7.96716 24 ft 0 kts 189°
2026-05-05 21:48 37.01727 -7.96714 24 ft 0 kts 191°
2026-05-05 21:54 37.01723 -7.96721 24 ft 9 kts 247°
2026-05-05 21:55 37.01766 -7.96780 24 ft 9 kts 348°
2026-05-05 21:55 37.01809 -7.96804 24 ft 5 kts 325°
2026-05-05 21:55 37.01829 -7.96848 24 ft 11 kts 259°
2026-05-05 21:55 37.01711 -7.96905 24 ft 27 kts 176°
2026-05-05 21:56 37.01641 -7.96693 24 ft 35 kts 98°
2026-05-05 21:56 37.01594 -7.96356 23 ft 40 kts 100°
2026-05-05 21:56 37.01549 -7.96045 22 ft 33 kts 99°
2026-05-05 21:56 37.01485 -7.95835 22 ft 21 kts 170°
2026-05-05 21:57 37.01414 -7.95850 22 ft 3 kts 184°
2026-05-05 21:57 37.01412 -7.95850 22 ft 0 kts 183°
2026-05-05 21:57 37.01410 -7.95850 22 ft 3 kts 182°
2026-05-05 21:57 37.01346 -7.95886 22 ft 16 kts 244°
2026-05-05 21:58 37.01357 -7.95987 22 ft 0 kts 286°
2026-05-05 21:58 37.01364 -7.96034 22 ft 25 kts 280°
2026-05-05 21:58 37.01428 -7.96470 23 ft 73 kts 278°
2026-05-05 21:58 37.01510 -7.97200 107 ft 91 kts 276°
2026-05-05 21:59 37.01501 -7.97786 405 ft 75 kts 260°
2026-05-05 21:59 37.01295 -7.98506 251 ft 108 kts 199°
2026-05-05 21:59 37.00593 -7.98437 455 ft 97 kts 165°
2026-05-05 21:59 36.99941 -7.98167 580 ft 100 kts 160°
2026-05-05 22:00 36.99397 -7.97634 704 ft 100 kts 142°
2026-05-05 22:00 36.99066 -7.96882 802 ft 105 kts 104°
2026-05-05 22:00 36.98858 -7.95964 915 ft 112 kts 107°
2026-05-05 22:00 36.98637 -7.95017 1050 ft 114 kts 107°
2026-05-05 22:01 36.98648 -7.94053 1164 ft 116 kts 59°
2026-05-05 22:01 36.99342 -7.93550 1060 ft 125 kts 10°
2026-05-05 22:01 37.00073 -7.93760 937 ft 86 kts 341°
2026-05-05 22:01 37.00596 -7.94111 677 ft 82 kts 322°
2026-05-05 22:02 37.00991 -7.94608 447 ft 81 kts 308°
2026-05-05 22:02 37.01241 -7.95233 210 ft 79 kts 286°
2026-05-05 22:02 37.01336 -7.95851 49 ft 65 kts 281°
2026-05-05 22:02 37.01406 -7.96324 24 ft 45 kts 281°
2026-05-05 22:03 37.01458 -7.96579 24 ft 15 kts 330°
2026-05-05 22:03 37.01542 -7.96568 24 ft 11 kts 11°
2026-05-05 22:03 37.01579 -7.96560 24 ft 0 kts 11°
2026-05-05 22:04 37.01632 -7.96549 23 ft 14 kts 11°
2026-05-05 22:05 37.01750 -7.96524 23 ft 14 kts 356°
2026-05-05 22:05 37.01795 -7.96596 23 ft 11 kts 277°
2026-05-05 22:05 37.01803 -7.96693 24 ft 10 kts 245°
2026-05-05 22:05 37.01753 -7.96710 24 ft 7 kts 193°
2026-05-05 22:06 37.01724 -7.96716 24 ft 0 kts 189°